EW9845 Weather Reports


time (UTC)temp
C
wind
direction
speed
KPH
gust
KPH
rain 1hr
cm
rain 24hr
cm
rain mn
cm
humidity
%
barometer
mb
20260506103030 18 52 0.0 0.0 0.00 0.00 0.00 80 1005.7
20260506101526 18 52 0.0 0.0 0.00 0.00 0.00 79 1005.5
20260506100027 18 52 0.0 0.0 0.00 0.00 0.00 79 1005.3
20260506094521 19 53 0.0 1.6 0.00 0.00 0.00 78 1005.2
20260506093018 19 53 0.0 1.6 0.00 0.00 0.00 78 1004.9
20260506091517 20 53 0.0 0.0 0.00 0.00 0.00 78 1004.8
20260506090019 20 53 0.0 0.0 0.00 0.00 0.00 77 1004.6
20260506084512 20 52 0.0 0.0 0.00 0.00 0.00 77 1004.7
20260506083011 21 52 0.0 0.0 0.00 0.00 0.00 78 1004.5
20260506081509 21 52 0.0 0.0 0.00 0.00 0.00 79 1004.2
20260506073008 20 52 0.0 0.0 0.00 0.00 0.00 78 1004.5
20260506071508 20 52 0.0 0.0 0.00 0.00 0.00 79 1004.5
20260506061603 20 52 0.0 0.0 0.00 0.00 0.00 77 1004.4
20260506044547 23 178 0.0 0.0 0.00 0.00 0.00 85 1004.3
20260506043043 23 178 0.0 0.0 0.00 0.00 0.00 85 1004.2
20260506041541 23 178 0.0 0.0 0.00 0.00 0.00 84 1004.1
20260506040044 23 178 0.0 0.0 0.00 0.00 0.00 82 1003.5
20260506034543 24 178 0.0 0.0 0.00 0.00 0.00 81 1003.2
20260506033044 24 178 0.0 0.0 0.00 0.00 0.00 80 1002.9
20260506031547 25 178 0.0 0.0 0.00 0.00 0.00 78 1002.8
20260506030041 25 178 0.0 0.0 0.00 0.00 0.00 76 1002.5
20260506024546 26 178 0.0 0.0 0.00 0.00 0.00 75 1002.2
20260506023037 26 179 0.0 0.0 0.00 0.00 0.00 74 1002.0
20260506021547 26 178 0.0 0.0 0.00 0.00 0.00 73 1001.8
20260506020037 26 178 0.0 0.0 0.00 0.00 0.00 73 1001.6
20260506014536 26 178 0.0 0.0 0.00 0.00 0.00 72 1001.4
20260506013035 27 178 0.0 0.0 0.00 0.00 0.00 70 1001.2
20260506011537 27 178 0.0 0.0 0.00 0.00 0.00 69 1001.1
20260506010034 28 179 0.0 0.0 0.00 0.00 0.00 67 1000.9
20260506004535 28 180 0.0 0.0 0.00 0.00 0.00 65 1000.9
20260506003034 28 178 0.0 0.0 0.00 0.00 0.00 65 1000.9
20260506001538 29 178 0.0 1.6 0.00 0.00 0.00 63 1000.9
20260506000039 30 159 0.0 0.0 0.00 0.00 0.00 60 1000.8
20260505234532 31 203 0.0 1.6 0.00 0.00 0.00 59 1000.7
20260505233031 31 171 0.0 4.8 0.00 0.00 0.00 59 1000.5
20260505231534 31 179 0.0 1.6 0.00 0.00 0.00 58 1000.7
20260505230035 31 191 0.0 0.0 0.00 0.00 0.00 58 1000.8
20260505224529 31 197 0.0 0.0 0.00 0.00 0.00 58 1000.9
20260505223034 32 201 0.0 1.6 0.00 0.00 0.00 54 1000.9
20260505221527 32 209 0.0 0.0 0.00 0.00 0.00 47 1000.8
20260505220025 32 209 0.0 0.0 0.00 0.00 0.00 47 1000.8
20260505214531 32 209 0.0 0.0 0.00 0.00 0.00 46 1000.9
20260505213023 32 209 0.0 0.0 0.00 0.00 0.00 45 1001.1
20260505211525 32 209 0.0 0.0 0.00 0.00 0.00 46 1000.9
20260505210020 32 202 0.0 0.0 0.00 0.00 0.00 49 1001.3
20260505204517 32 253 0.0 0.0 0.00 0.00 0.00 47 1001.5
20260505203014 32 257 0.0 0.0 0.00 0.00 0.00 46 1001.6
20260505201513 31 203 0.0 0.0 0.00 0.00 0.00 47 1001.7
20260505200010 31 253 0.0 0.0 0.00 0.00 0.00 52 1001.8
20260505194505 31 262 0.0 0.0 0.00 0.00 0.00 49 1002.0
20260505193002 31 182 0.0 0.0 0.00 0.00 0.00 55 1002.1
20260505191600 30 236 0.0 0.0 0.00 0.00 0.00 57 1002.3
20260505190057 30 223 0.0 0.0 0.00 0.00 0.00 58 1002.5
20260505184555 30 242 0.0 0.0 0.00 0.00 0.00 59 1002.7
20260505183103 29 200 0.0 0.0 0.00 0.00 0.00 62 1003.0
20260505181552 29 210 0.0 0.0 0.00 0.00 0.00 64 1003.3
20260505180051 28 265 0.0 0.0 0.00 0.00 0.00 65 1003.3
20260505174556 28 188 0.0 0.0 0.00 0.00 0.00 65 1003.6
20260505173042 28 187 0.0 0.0 0.00 0.00 0.00 68 1003.7
20260505171546 27 188 0.0 0.0 0.00 0.00 0.00 67 1003.8
20260505170038 27 170 0.0 0.0 0.00 0.00 0.00 70 1003.8
20260505164536 26 243 0.0 0.0 0.00 0.00 0.00 71 1003.7
20260505163033 26 196 0.0 0.0 0.00 0.00 0.00 73 1004.0
20260505161530 26 180 0.0 0.0 0.00 0.00 0.00 74 1003.9
20260505153024 25 223 0.0 0.0 0.00 0.00 0.00 77 1003.8
20260505151526 24 189 0.0 4.8 0.00 0.00 0.00 77 1004.2
20260505124502 17 179 0.0 0.0 0.00 0.00 0.00 95 1003.5
20260505123001 16 179 0.0 0.0 0.00 0.00 0.00 94 1003.3
20260505121501 16 179 0.0 0.0 0.00 0.00 0.00 93 1003.1
20260505120059 16 179 0.0 0.0 0.00 0.00 0.00 93 1002.8
20260505114600 16 179 0.0 0.0 0.00 0.00 0.00 93 1002.7
20260505113114 16 179 0.0 0.0 0.00 0.00 0.00 93 1002.6
20260505111555 17 179 0.0 0.0 0.00 0.00 0.00 93 1002.6